Location: Colle Pacifico
(43.5333°N, 13.3167°E)
Time: 10:58:30
(UTC+00:00)

Cosmos 1825 - Pass Details

Date: 07 June 2020
Orbit: 504 x 507 km, 82.5° (Epoch: 04 July)

Event Time Altitude Azimuth Distance (km) Brightness Sun altitude
Exits shadow 01:55:29 16° 184° (S) 1,360 3.8 -13.1°
Maximum altitude 01:58:22 84° 100° (E) 513 2.1 -12.7°
Drops below altitude 10° 02:02:09 10° 10° (N) 1,725 5.8 -12.3°
Sets 02:04:17 0° 9° (N) 2,615 6.8 -12.0°
